SCP
0 0 0 0 0 0 0 0 0 0 0 0 0 0 0 0 0 0 0 0 0 0 0 0 0 0 0 0 0 0 0 0 0 0 0 0 0 0 0 0 0 0 0
0 0 0 0 0 0 0 0 0 0 0 0 0 0 0 0 0 0 0 0 0 0 0 0 0 0 0 0 0 0 0 0 0 0 0 0 0 0 0 0 0 0 0
0 0 0 0 0 0 0 0 0 0 0 0 0 0 0 0 0 0 0 0 0 0 0 0 0 0 0 0 0 0 0 0 0 0 0 0 0 0 0 0 0 0 0
0 0 0 0 0 0 0 0 0 0 0 0 0 0 0 0 0 0 0 0 0 0 0 0 0 0 0 0 0 0 0 0 0 0 0 0 0 0 0 0 0 0 0
0 0 0 0 0 0 0 0 0 0 0 0 0 0 0 0 0 0 0 0 0 0 0 0 0 0 0 0 0 0 0 0 0 0 0 0 0 0 0 0 0 0 0
0 0 0 0 0 0 0 0 0 0 0 0 0 0 0 0 0 0 0 0 0 0 0 0 0 0 0 0 0 0 0 0 0 0 0 0 0 0 0 0 0 0 0
0 0 0 0 0 0 0 0 0 0 0 0 0 0 0 0 0 0 0 0 0 0 0 0 0 0 0 0 0 0 0 0 0 0 0 0 0 0 0 0 0 0 0
0 0 0 0 0 0 0 0 0 0 0 0 0 0 0 0 0 0 0 0 0 0 0 0 0 0 0 0 0 0 0 0 0 0 0 0 0 0 0 0 0 0 0
0 0 0 0 0 0 0 0 0 0 0 0 0 0 0 0 0 0 0 0 0 0 0 0 0 0 0 0 0 0 0 0 0 0 0 0 0 0 0 0 0 0 0
0 0 0 0 0 0 0 0 0 0 0 0 0 0 0 0 0 0 0 0 0 0 0 0 0 0 0 0 0 0 0 0 0 0 0 0 0 0 0 0 0 0 0
0 0 0 0 0 0 0 0 0 0 0 0 0 0 0 0 0 0 0 0 0 0 0 0 0 0 0 0 0 0 0 0 0 0 0 0 0 0 0 0 0 0 0
0 0 0 0 0 0 0 0 0 0 0 0 0 0 0 0 0 0 0 0 0 0 0 0 0 0 0 0 0 0 0 0 0 0 0 0 0 0 0 0 0 0 0
0 0 0 0 0 0 0 0 0 0 0 0 0 0 0 0 0 0 0 0 0 0 0 0 0 0 0 0 0 0 0 0 0 0 0 0 0 0 0 0 0 0 0
-0 -0 0 0 0 0 0 0 0 0 0 0 0 0 0 0 0 0 0 0 0 0 0 0 0 0 0 0 0 0 0 0 0 0 0 0 0 0 0 0 0 0 0
0 0 0 0 0 0 0 0 0 0 0 0 0 0 0 0 0 0 0 0 0 0 0 0 0 0 0 0 0 0 0 0 0 0 0 0 0 0 0 0 0 0 0
0 0 0 0 0 0 0 0 0 0 0 0 0 0 0 0 0 0 0 0 0 0 0 0 0 0 0 0 0 0 0 0 0 0 0 0 0 0 0 0 0 0 0
0 0 0 0 0 0 0 0 0 0 0 0 0 0 0 0 0 0 0 0 0 0 0 0 0 0 0 0 0 0 0 0 0 0 0 0 0 0 0 0 0 0 0
0 0 0 0 0 0 0 0 0 0 0 0 0 0 0 0 0 0 0 0 0 0 0 0 0 0 0 0 0 0 0 0 0 0 0 0 0 0 0 0 0 0 0
0 0 0 0 0 0 0 0 0 0 0 0 0 0 0 0 0 0 0 0 0 0 0 0 0 0 0 0 0 0 0 0 0 0 0 0 0 0 0 0 0 0 0
0 0 0 0 0 0 0 0 0 0 0 0 0 0 0 0 0 0 0 0 0 0 0 0 0 0 0 0 0 0 0 0 0 0 0 0 0 0 0 0 0 0 0
0 0 0 0 0 0 0 0 0 0 0 0 0 0 0 0 0 0 0 0 0 0 0 0 0 0 0 0 0 0 0 0 0 0 0 0 0 0 0 0 0 0 0
0 0 0 0 0 0 0 0 0 0 0 0 0 0 0 0 0 0 0 0 0 0 0 0 0 0 0 0 0 0 0 0 0 0 0 0 0 0 0 0 0 0 0
0 0 0 0 0 0 0 0 0 0 0 0 0 0 0 0 0 0 0 0 0 0 0 0 0 0 0 0 0 0 0 0 0 0 0 0 0 0 0 0 0 0 0
0 0 0 0 0 0 0 0 0 0 0 0 0 0 0 0 0 0 0 0 0 0 0 0 0 0 0 0 0 0 0 0 0 0 0 0 0 0 0 0 0 0 0
0 0 0 0 0 0 0 0 0 0 0 0 0 0 0 0 0 0 0 0 0 0 0 0 0 0 0 0 0 0 0 0 0 0 0 0 0 0 0 0 0 0 0
0 0 0 0 0 0 0 0 0 0 0 0 0 0 0 0 0 0 0 0 0 0 0 0 0 0 0 0 0 0 0 0 0 0 0 0 0 0 0 0 0 0 0
Wind_Speed
6 6 6 5 4 4 5 6 6 7 9 11 11 11 11 11 11 10 10 11 11 10 8 8 6 5 3 2 2 1 1 2 4 3 2 2 3 5 6 5 6 6 8
6 5 5 3 2 3 4 5 7 9 9 11 11 12 11 11 11 12 12 11 11 10 8 7 6 4 3 2 2 2 2 3 4 5 3 3 5 6 6 6 7 7 6
5 4 3 1 2 3 5 6 8 9 10 11 11 12 12 12 12 12 13 12 11 10 8 6 5 4 3 2 2 2 2 3 4 4 4 3 4 5 5 6 7 7 9
5 3 2 1 4 5 7 8 9 10 11 12 12 12 12 13 13 13 13 12 11 9 8 6 4 3 2 3 3 4 4 4 4 4 5 5 5 5 4 5 7 5 8
5 5 4 5 7 8 9 10 11 11 12 13 14 13 13 11 11 13 12 12 10 9 7 5 3 1 2 3 4 4 4 4 4 4 5 5 5 4 5 5 9 8 8
7 8 8 9 10 10 11 12 13 13 13 13 13 13 12 11 18 18 13 10 9 7 6 4 2 1 1 3 6 7 6 5 4 4 4 6 7 6 6 7 8 10 7
9 9 9 11 11 11 12 13 13 13 13 13 12 13 14 16 19 18 16 10 8 6 5 3 2 1 2 2 6 9 9 12 12 7 7 7 8 8 8 9 9 10 11
9 9 10 11 12 11 12 13 12 11 11 11 11 12 12 14 18 17 15 9 7 5 4 3 1 1 3 5 5 5 5 6 8 6 7 8 8 8 9 9 9 8 8
9 9 9 9 11 11 11 11 10 10 10 9 9 10 10 11 14 14 11 6 5 4 2 1 1 3 8 10 5 4 5 6 10 14 16 15 18 19 16 7 5 7 10
8 8 8 9 9 10 10 10 9 9 9 9 9 8 8 7 10 11 10 4 3 2 1 1 3 6 9 10 4 3 5 6 6 7 8 11 10 12 15 6 4 6 7
7 8 9 9 9 9 9 9 9 9 9 9 9 7 6 6 6 7 8 3 2 2 1 1 3 9 10 11 9 3 8 9 3 4 6 7 6 6 5 5 5 6 8
7 8 9 8 8 8 9 8 8 8 8 7 7 6 5 5 6 6 6 4 3 2 1 2 4 10 11 11 8 11 14 10 3 5 6 6 6 7 7 7 7 8 10
8 9 8 9 8 7 7 7 6 6 5 4 4 4 3 3 4 6 6 5 5 1 2 6 8 10 9 7 10 13 9 3 4 5 7 7 6 7 8 8 8 8 10
8 7 7 7 7 7 5 5 5 4 4 4 3 3 2 2 2 1 1 2 4 4 3 4 6 8 7 8 8 6 4 4 5 5 7 8 8 7 7 6 8 9 10
7 6 6 6 5 6 5 4 4 2 3 3 2 2 2 0 2 3 1 1 2 2 1 1 2 3 4 4 4 4 4 4 5 5 7 8 8 8 8 6 6 7 8
6 5 4 4 4 4 4 4 7 6 8 7 4 2 0 1 3 6 7 8 8 9 4 2 3 3 4 5 6 6 6 5 5 6 7 7 8 8 9 8 7 8 10
6 5 3 3 3 3 3 3 3 5 8 8 7 6 4 5 6 7 8 8 8 7 2 2 3 4 4 5 5 5 6 6 5 6 7 7 7 8 9 9 9 9 10
5 5 5 3 3 3 3 2 2 2 1 2 5 7 7 7 7 7 8 6 3 3 2 3 4 4 5 5 5 6 6 7 6 6 7 7 7 8 9 9 9 10 11
5 4 3 3 3 3 3 2 2 2 2 2 2 4 7 7 6 7 6 2 2 3 3 3 4 4 5 5 5 6 6 7 7 7 7 8 7 8 9 9 10 15 14
4 7 5 3 3 3 2 2 2 1 1 2 2 3 3 2 2 3 2 2 3 3 4 4 5 5 5 5 6 6 6 7 7 7 7 7 7 8 10 12 11 12 11
4 4 6 4 3 2 2 1 1 1 1 2 2 4 6 1 2 3 3 3 3 4 4 5 5 5 5 5 5 6 8 8 7 7 8 8 8 9 10 11 12 12 12
4 3 3 3 2 1 1 0 0 1 2 3 3 4 7 3 3 4 4 4 4 4 4 5 6 6 6 6 6 7 8 9 8 8 8 8 9 10 11 11 11 11 11
4 4 3 2 1 1 1 0 1 2 2 3 3 3 3 3 4 4 5 5 5 5 5 5 6 7 6 6 6 7 9 10 9 9 9 10 10 11 11 11 13 13 13
4 4 3 2 1 1 1 1 2 2 3 3 3 4 4 4 5 6 5 5 5 6 6 6 7 9 12 10 8 8 9 10 10 10 13 13 13 12 11 11 12 13 12
4 4 3 3 2 2 2 2 2 3 3 4 4 4 4 5 5 6 5 5 6 7 8 8 7 8 11 13 13 12 16 21 20 14 12 11 13 13 13 13 12 12 13
4 4 3 3 2 2 2 3 3 3 3 4 4 4 5 5 6 6 6 6 6 7 8 8 9 10 13 12 14 17 20 22 22 23 15 11 11 11 12 11 13 13 13
Wind_Direction
289 282 268 254 236 211 202 194 174 157 152 154 152 148 146 144 141 134 129 126 118 110 104 104 98 96 99 100 102 125 157 169 234 265 262 273 280 281 290 286 279 276 283
293 286 272 252 208 181 172 156 149 148 147 145 142 140 138 136 134 131 125 118 115 112 106 105 109 114 121 136 158 190 202 203 222 260 268 271 266 271 273 280 291 292 283
310 305 295 216 157 146 136 131 133 133 133 132 132 132 130 128 124 121 117 112 108 108 110 112 118 125 142 170 197 220 231 232 220 242 265 255 264 271 278 279 280 281 285
342 348 350 118 121 118 116 116 119 122 123 121 119 118 118 117 116 114 111 108 106 104 103 103 112 136 175 206 223 229 234 242 239 247 262 263 262 264 266 281 293 280 286
20 34 44 77 92 100 103 104 106 108 110 111 111 110 110 110 112 112 109 109 109 105 99 98 102 120 226 226 230 229 225 235 245 253 266 272 273 279 280 280 294 294 280
45 51 59 75 83 89 94 98 99 101 104 107 109 110 106 106 113 111 109 105 106 107 107 100 95 88 335 315 297 286 264 251 248 242 260 272 279 277 281 286 292 300 297
53 59 66 77 82 86 92 94 96 98 100 101 103 105 105 111 111 107 105 103 103 104 109 110 103 68 13 303 296 296 294 292 288 281 278 276 280 280 281 283 281 282 285
62 67 73 82 86 88 91 93 95 98 99 101 102 103 104 109 109 107 105 102 105 110 115 122 143 264 285 282 258 260 262 272 281 280 260 265 268 271 267 280 289 290 282
62 67 74 83 88 90 91 94 96 97 96 96 98 100 100 104 108 111 111 110 108 111 123 155 227 264 293 303 294 269 272 273 291 295 296 298 302 305 305 302 299 300 297
60 66 71 79 87 90 91 92 91 93 93 91 86 85 93 101 117 120 121 112 112 119 134 274 302 301 300 307 296 275 281 279 279 293 302 303 298 294 300 291 272 283 291
65 71 73 78 83 87 87 86 89 89 88 85 83 74 71 80 92 105 119 118 131 143 185 252 274 303 309 313 322 310 295 307 312 308 300 296 294 288 286 274 255 255 273
70 74 73 73 77 81 84 82 83 89 89 86 86 77 56 51 66 71 75 78 91 147 246 256 269 303 321 330 330 315 317 331 332 306 299 297 298 298 296 288 274 258 252
76 73 73 72 68 71 80 83 77 77 86 85 86 85 68 46 41 51 45 28 8 2 268 304 319 331 341 338 323 326 338 336 306 302 298 295 288 282 290 292 288 277 270
83 76 73 75 70 62 62 71 82 85 90 92 92 90 73 44 15 356 344 329 322 321 318 334 346 347 344 332 331 331 317 298 301 297 298 297 298 293 292 294 300 307 303
84 79 75 74 78 72 66 73 87 89 124 120 120 124 113 41 300 330 348 284 288 291 15 42 355 341 336 328 319 310 305 309 307 299 297 300 301 301 299 300 291 296 289
98 86 81 81 76 76 77 67 76 87 86 93 110 120 208 315 335 354 349 348 348 347 16 0 335 327 320 317 315 313 308 300 296 295 293 291 294 297 299 298 290 290 291
109 106 95 93 94 93 90 91 74 54 62 60 49 37 30 13 6 357 351 357 356 4 17 323 307 301 296 293 290 291 291 290 289 286 284 286 288 290 292 295 296 294 292
108 113 110 104 102 99 97 95 94 82 37 8 11 12 12 6 1 356 358 10 356 352 305 291 287 287 287 286 286 287 289 293 289 284 283 282 283 285 289 290 291 291 294
115 111 109 107 102 99 96 89 76 67 54 12 348 349 357 355 357 355 5 3 303 298 290 282 277 278 280 279 279 280 280 283 283 283 282 281 281 283 285 287 289 293 296
122 131 125 114 102 91 83 78 65 46 20 351 330 315 316 330 331 325 320 289 281 280 280 280 280 276 277 276 277 279 281 281 282 281 281 282 282 281 284 288 290 292 292
122 125 120 105 98 98 91 81 54 355 318 306 297 299 311 305 293 291 289 281 272 275 275 279 279 278 274 273 272 274 277 280 279 279 280 281 283 284 285 285 286 287 289
122 117 116 119 118 128 126 105 344 303 298 297 296 303 319 319 287 282 281 280 275 270 267 273 276 272 268 270 273 276 278 279 279 278 279 281 283 284 286 286 286 290 293
125 126 121 118 116 153 118 54 293 286 286 286 288 290 294 288 284 281 281 282 284 283 279 273 273 276 271 266 263 264 269 273 276 277 280 283 283 283 285 288 291 294 296
133 139 144 149 155 173 212 259 272 277 281 281 280 282 281 282 284 286 284 283 285 280 276 272 269 273 277 280 276 269 266 270 271 269 267 270 279 284 288 290 292 295 299
142 149 158 172 187 208 236 257 267 274 281 285 287 289 289 288 286 284 282 282 283 283 283 280 275 275 277 279 280 280 281 285 287 284 279 279 283 288 292 294 297 300 300
152 159 167 179 197 216 236 254 264 271 277 282 283 282 284 284 284 284 285 284 285 287 287 286 279 279 282 285 284 285 289 294 298 298 297 290 291 293 297 298 300 301 300